Home   Weather   Paradise   Past weeks
Flag for USA

Past Weather in Paradise, Nevada, USA — Yesterday and Last 2 Weeks

Now
73 °F

Partly cloudy.


Feels Like: 73 °F
Forecast: 78 / 54 °F
Wind: 5 mph from West

Location: McCarran International Airport

Current Time: Mar 26, 2019 at 8:27:39 pm

Latest Report: Mar 26, 2019 at 7:56 pm


Visibility: 10 mi

Pressure: 29.83 "Hg (27.70 "Hg at 643m altitude)

Humidity: 9%

Dew Point: 12 °F

Location of ParadiseLocation

Past Weather in Paradise — Graph

°F

Paradise Temperature Yesterday

Maximum temperature yesterday: 76 °F (at 4:56 pm)
Minimum temperature yesterday: 52 °F (at 5:56 am)
Average temperature yesterday: 64 °F

High & Low Weather Summary for the Past Weeks

 TemperatureHumidityPressure
High81 °F (Mar 26, 3:56 pm)86% (Mar 12, 12:11 am)30.30 "Hg (Mar 12, 12:11 am)
Low44 °F (Mar 14, 5:56 am)7% (Mar 26, 6:56 pm)29.48 "Hg (Mar 12, 7:56 pm)
Average60 °F34%29.99 "Hg
* Reported Mar 11 6:56 pm — Mar 26 6:56 pm, Paradise. Weather by CustomWeather, © 2019

Note: Actual official high and low records may vary slightly from our data, if they occured in-between our weather recording intervals... More about our weather records

Advertising

Paradise Weather History for the Previous 24 Hours

Scroll right to see more
 ConditionsComfort  
Time TempWeatherWind HumidityBarometerVisibility
6:56 pm
Tue, Mar 26
77 °FBroken clouds.7 mph7%29.82 "Hg10 mi
5:56 pm80 °FPartly sunny.10 mph8%29.82 "Hg10 mi
4:56 pm80 °FPartly sunny.9 mph9%29.83 "Hg10 mi
3:56 pm81 °FPartly sunny.10 mph9%29.85 "Hg10 mi
2:56 pm79 °FPartly sunny.9 mph12%29.86 "Hg10 mi
1:56 pm79 °FPartly sunny.12 mph13%29.89 "Hg10 mi
12:56 pm74 °FPartly sunny.8 mph15%29.93 "Hg10 mi
11:56 am70 °FPartly sunny.7 mph18%29.98 "Hg10 mi
10:56 am68 °FPartly sunny.6 mph20%29.97 "Hg10 mi
9:56 am66 °FPartly sunny.6 mph22%29.97 "Hg10 mi
8:56 am63 °FPartly sunny.No wind27%29.96 "Hg10 mi
7:56 am58 °FPartly sunny.No wind32%29.96 "Hg10 mi
6:56 am56 °FPartly sunny.3 mph36%29.95 "Hg10 mi
5:56 am56 °FPassing clouds.3 mph36%29.93 "Hg10 mi
4:56 am55 °FPassing clouds.6 mph39%29.93 "Hg10 mi
3:56 am56 °FPassing clouds.5 mph36%29.93 "Hg10 mi
2:56 am58 °FPassing clouds.3 mph33%29.94 "Hg10 mi
1:56 am59 °FPassing clouds.No wind32%29.96 "Hg10 mi
12:56 am59 °FPassing clouds.3 mph32%29.98 "Hg10 mi
11:56 pm
Mon, Mar 25
60 °FPassing clouds.5 mph33%29.98 "Hg10 mi
10:56 pm63 °FPassing clouds.5 mph28%29.98 "Hg10 mi
9:56 pm65 °FPassing clouds.6 mph25%29.99 "Hg10 mi
8:56 pm70 °FPassing clouds.No wind18%29.98 "Hg10 mi
Weather by CustomWeather, © 2019

See weather overview